Mojave, CA

1:11 PM PDT on March 24, 2017 (GMT -0700)
Mojave

Weather History for KMHV - November, 2012

Change the Weather History Date:

Tuesday, November 20, 2012

  Actual Average Record
Temperature  
Mean Temperature 54 °F -  
Max Temperature 68 °F 61 °F 75 °F (2006)
Min Temperature 39 °F 35 °F 20 °F (1964)
Degree Days  
Heating Degree Days 12    
Growing Degree Days 4 (Base 50)    
Moisture  
Dew Point 34 °F    
Average Humidity 49    
Maximum Humidity 81    
Minimum Humidity 28    
Precipitation  
Precipitation 0.00 in - - ()
Sea Level Pressure  
Sea Level Pressure 30.15 in    
Wind  
Wind Speed 3 mph (West)    
Max Wind Speed 20 mph    
Max Gust Speed 25 mph    
Visibility 10 miles    
Events      
Averages and records for this station are not official NWS values.
T = Trace of Precipitation, MM = Missing Value Source: NWS Daily Summary

Daily Weather History Graph

Daily Weather History Graph

Search for Another Location

Airport or City:

Trip Planner

Search our weather history database for the weather conditions in past years. The results will help you decide how hot, cold, wet, or windy it might be!

Date:

Astronomy

Nov. 20, 2012 Rise Set
Actual Time 6:32 AM PST 4:43 PM PST
Civil Twilight 6:05 AM PST 5:11 PM PST
Nautical Twilight 5:34 AM PST 5:41 PM PST
Astronomical Twilight 5:04 AM PST 6:12 PM PST
Moon 12:17 PM PST (11/20) No Moon Set
Length of Visible Light 11h 05m
Length of Day
10h 11m
First Quarter, 52% of the Moon is Illuminated
Nov 20
First Quarter
Nov 28
Full
Dec 6
Last Quarter
Dec 13
New
Dec 19
First Quarter

Hourly Weather History & Observations

Time (PST) Temp. Windchill Dew Point Humidity Pressure Visibility Wind Dir Wind Speed Gust Speed Precip Events Conditions
12:15 AM 46.4 °F 44.3 °F 32.0 °F 57% 30.22 in 10.0 mi North 4.6 mph - N/A   Clear
12:35 AM 46.4 °F - 32.0 °F 57% 30.22 in 10.0 mi Calm Calm - N/A   Clear
12:55 AM 48.2 °F - 33.8 °F 58% 30.21 in 10.0 mi Calm Calm - N/A   Clear
1:15 AM 46.4 °F - 32.0 °F 57% 30.21 in 10.0 mi Calm Calm - N/A   Clear
1:35 AM 46.4 °F - 32.0 °F 57% 30.21 in 10.0 mi Calm Calm - N/A   Clear
1:55 AM 44.6 °F - 32.0 °F 61% 30.21 in 10.0 mi Calm Calm - N/A   Clear
2:15 AM 44.6 °F - 32.0 °F 61% 30.21 in 10.0 mi Calm Calm - N/A   Clear
2:35 AM 44.6 °F - 33.8 °F 66% 30.20 in 10.0 mi Calm Calm - N/A   Clear
2:55 AM 44.6 °F - 32.0 °F 61% 30.20 in 10.0 mi Calm Calm - N/A   Clear
3:15 AM 44.6 °F - 33.8 °F 66% 30.20 in 10.0 mi Calm Calm - N/A   Clear
3:35 AM 42.8 °F - 33.8 °F 70% 30.20 in 10.0 mi Calm Calm - N/A   Clear
3:55 AM 41.0 °F - 33.8 °F 76% 30.19 in 10.0 mi Calm Calm - N/A   Clear
4:15 AM 41.0 °F - 33.8 °F 76% 30.19 in 10.0 mi Calm Calm - N/A   Clear
4:35 AM 41.0 °F - 33.8 °F 76% 30.19 in 10.0 mi Calm Calm - N/A   Clear
4:55 AM 41.0 °F - 33.8 °F 76% 30.19 in 10.0 mi Calm Calm - N/A   Clear
5:15 AM 41.0 °F - 35.6 °F 81% 30.19 in 10.0 mi Calm Calm - N/A   Clear
5:35 AM 41.0 °F - 33.8 °F 76% 30.19 in 10.0 mi Calm Calm - N/A   Clear
5:55 AM 41.0 °F - 33.8 °F 76% 30.19 in 10.0 mi Calm Calm - N/A   Clear
6:15 AM 41.0 °F - 33.8 °F 76% 30.20 in 10.0 mi Calm Calm - N/A   Clear
6:35 AM 39.2 °F - 33.8 °F 81% 30.21 in 10.0 mi Calm Calm - N/A   Clear
6:55 AM 41.0 °F - 33.8 °F 76% 30.21 in 10.0 mi Calm Calm - N/A   Clear
7:15 AM 42.8 °F - 33.8 °F 70% 30.21 in 10.0 mi Calm Calm - N/A   Clear
7:35 AM 48.2 °F - 35.6 °F 62% 30.22 in 8.0 mi Calm Calm - N/A   Clear
7:55 AM 51.8 °F - 35.6 °F 54% 30.22 in 10.0 mi Calm Calm - N/A   Clear
8:15 AM 53.6 °F - 35.6 °F 51% 30.22 in 10.0 mi Calm Calm - N/A   Clear
8:35 AM 53.6 °F - 35.6 °F 51% 30.22 in 10.0 mi Calm Calm - N/A   Clear
8:55 AM 55.4 °F - 37.4 °F 51% 30.22 in 10.0 mi Calm Calm - N/A   Clear
9:15 AM 55.4 °F - 37.4 °F 51% 30.21 in 10.0 mi Calm Calm - N/A   Clear
9:35 AM 57.2 °F - 35.6 °F 44% 30.21 in 10.0 mi Calm Calm - N/A   Clear
9:55 AM 57.2 °F - 35.6 °F 44% 30.21 in 10.0 mi Calm Calm - N/A   Clear
10:35 AM 59.0 °F - 35.6 °F 42% 30.19 in 10.0 mi Calm Calm - N/A   Clear
10:55 AM 59.0 °F - 37.4 °F 45% 30.18 in 10.0 mi Calm Calm - N/A   Clear
11:15 AM 59.0 °F - 37.4 °F 45% 30.17 in 10.0 mi Calm Calm - N/A   Clear
11:35 AM 60.8 °F - 37.4 °F 42% 30.16 in 10.0 mi Calm Calm - N/A   Clear
11:55 AM 62.6 °F - 37.4 °F 39% 30.15 in 10.0 mi Calm Calm - N/A   Clear
12:15 PM 62.6 °F - 37.4 °F 39% 30.14 in 10.0 mi Calm Calm - N/A   Clear
12:35 PM 62.6 °F - 37.4 °F 39% 30.12 in 10.0 mi Calm Calm - N/A   Clear
12:55 PM 64.4 °F - 35.6 °F 34% 30.12 in 10.0 mi Calm Calm - N/A   Clear
1:15 PM 64.4 °F - 35.6 °F 34% 30.11 in 10.0 mi ESE 3.5 mph - N/A   Clear
1:35 PM 64.4 °F - 35.6 °F 34% 30.10 in 10.0 mi Calm Calm - N/A   Clear
1:55 PM 64.4 °F - 35.6 °F 34% 30.10 in 10.0 mi Calm Calm - N/A   Clear
2:15 PM 66.2 °F - 35.6 °F 32% 30.09 in 10.0 mi SSE 5.8 mph - N/A   Clear
2:35 PM 66.2 °F - 35.6 °F 32% 30.08 in 10.0 mi SSE 4.6 mph - N/A   Clear
2:55 PM 66.2 °F - 32.0 °F 28% 30.08 in 10.0 mi Calm Calm - N/A   Clear
3:15 PM 66.2 °F - 33.8 °F 30% 30.08 in 10.0 mi South 5.8 mph - N/A   Clear
3:35 PM 68.0 °F - 35.6 °F 30% 30.08 in 10.0 mi West 10.4 mph - N/A   Clear
3:55 PM 66.2 °F - 35.6 °F 32% 30.08 in 10.0 mi WNW 11.5 mph - N/A   Clear
4:15 PM 64.4 °F - 35.6 °F 34% 30.08 in 10.0 mi WNW 11.5 mph - N/A   Clear
4:35 PM 62.6 °F - 35.6 °F 37% 30.08 in 10.0 mi WNW 12.7 mph - N/A   Clear
4:55 PM 60.8 °F - 35.6 °F 39% 30.08 in 10.0 mi WNW 13.8 mph - N/A   Clear
5:15 PM 59.0 °F - 35.6 °F 42% 30.08 in 10.0 mi WNW 12.7 mph - N/A   Clear
5:35 PM 59.0 °F - 33.8 °F 39% 30.08 in 10.0 mi WNW 11.5 mph - N/A   Clear
5:55 PM 59.0 °F - 33.8 °F 39% 30.09 in 10.0 mi WNW 15.0 mph - N/A   Clear
6:15 PM 57.2 °F - 33.8 °F 41% 30.09 in 10.0 mi WNW 12.7 mph - N/A   Clear
6:35 PM 57.2 °F - 33.8 °F 41% 30.09 in 10.0 mi WNW 16.1 mph - N/A   Clear
6:55 PM 57.2 °F - 32.0 °F 38% 30.10 in 10.0 mi WNW 17.3 mph - N/A   Clear
7:15 PM 57.2 °F - 32.0 °F 38% 30.10 in 10.0 mi WNW 16.1 mph 19.6 mph N/A   Clear
7:35 PM 57.2 °F - 26.6 °F 31% 30.10 in 10.0 mi WNW 15.0 mph 19.6 mph N/A   Clear
7:55 PM 59.0 °F - 26.6 °F 29% 30.10 in 10.0 mi WNW 15.0 mph - N/A   Clear
8:15 PM 59.0 °F - 30.2 °F 34% 30.10 in 10.0 mi WNW 13.8 mph - N/A   Clear
8:35 PM 59.0 °F - 32.0 °F 36% 30.10 in 10.0 mi WNW 19.6 mph 25.3 mph N/A   Clear
8:55 PM 59.0 °F - 32.0 °F 36% 30.10 in 10.0 mi WNW 16.1 mph 21.9 mph N/A   Clear
9:15 PM 57.2 °F - 32.0 °F 38% 30.09 in 10.0 mi WSW 8.1 mph - N/A   Clear
9:35 PM 57.2 °F - 30.2 °F 36% 30.09 in 10.0 mi SW 5.8 mph - N/A   Clear
9:50 PM 57.2 °F - 32.0 °F 38% 30.09 in 10.0 mi SW 6.9 mph - N/A   Clear